Location: Beadle
(51.4667°N, 109.0000°W)
Time: 04:13:55
(UTC+00:00)

Altair - Pass Details

Date: 31 May 2022
Orbit: 1501 x 1682 km, 47.2° (Epoch: 30 June)

Event Time Altitude Azimuth Distance (km) Brightness Sun altitude
Rises 01:05:18 0° 262° (W) 4,861 11.4 18.2°
Reaches altitude 10° 01:08:25 10° 260° (W) 3,894 11.1 17.8°
Maximum altitude 01:18:22 71° 180° (S) 1,758 8.1 16.2°
Drops below altitude 10° 01:28:28 10° 99° (E) 3,944 9.1 14.7°
Sets 01:31:38 0° 97° (E) 4,926 9.5 14.3°
